This is the latest recevied weather packets stored in our database for station/object AD5L. If no packets are shown the sender has not sent any weather packets the latest 10 day(s).
| Time | Temp. | Humidity | Pressure | Rain* | Wind** | Luminosity | Snow |
|---|---|---|---|---|---|---|---|
| 1777665217 | 13.33° C | 99% | 1013.4 hPa | 1.02 mm | - | - | - |
| 1777664629 | 13.33° C | 99% | 1013.2 hPa | 0.76 mm | - | - | - |
| 1777664017 | 13.33° C | 99% | 1013.7 hPa | 1.02 mm | - | - | - |
| 1777663428 | 13.33° C | 99% | 1013.8 hPa | 1.52 mm | - | - | - |
| 1777662820 | 13.33° C | 99% | 1013.2 hPa | 2.79 mm | - | - | - |
| 1777662201 | 13.89° C | 100% | 1012.6 hPa | 6.35 mm | - | - | - |
| 1777661613 | 13.89° C | 100% | 1013 hPa | 6.35 mm | - | - | - |
| 1777661004 | 13.89° C | 100% | 1013.2 hPa | 6.35 mm | - | - | - |
| 1777660412 | 13.33° C | 100% | 1014.2 hPa | 6.1 mm | - | - | - |
| 1777659210 | 13.33° C | 100% | 1016.6 hPa | 3.56 mm | - | - | - |
| 1777658621 | 13.33° C | 100% | 1016.3 hPa | 0.25 mm | - | - | - |
| 1777658012 | 13.33° C | 100% | 1014.4 hPa | 0.25 mm | - | - | - |
| 1777657404 | 13.33° C | 99% | 1014 hPa | 0.25 mm | - | - | - |
| 1777656815 | 13.33° C | 100% | 1014 hPa | 0 mm | - | - | - |
| 1777656205 | 13.33° C | 100% | 1013.8 hPa | 0 mm | - | - | - |
| 1777655617 | 13.33° C | 100% | 1013.6 hPa | 0 mm | - | - | - |
| 1777655008 | 13.33° C | 100% | 1013.5 hPa | 0 mm | - | - | - |
| 1777654419 | 13.33° C | 100% | 1013.8 hPa | 0 mm | - | - | - |
| 1777653811 | 13.89° C | 100% | 1013.8 hPa | 0.51 mm | - | - | - |
| 1777653222 | 13.33° C | 100% | 1013.8 hPa | 1.52 mm | - | - | - |
| 1777652613 | 13.33° C | 100% | 1014 hPa | 3.3 mm | - | - | - |
| 1777652020 | 13.89° C | 100% | 1013.5 hPa | 3.81 mm | - | - | - |
| 1777651431 | 13.89° C | 100% | 1013.3 hPa | 4.32 mm | - | - | - |
| 1777650822 | 13.33° C | 100% | 1013.5 hPa | 4.32 mm | - | - | - |
| 1777650202 | 13.33° C | 100% | 1014.2 hPa | 3.56 mm | - | - | - |
* Rain latest hour (hover to see other rain measurements)
** Current wind speed in m/s (hover to see current wind gust speed)